Вернуться в каталог

VLADIVOSTOK-2

АктивенНаукаSSO
NORAD 67275·PAYLOAD·🇷🇺 Russia
Это название спутника еще не подтверждено официальными источниками.

Запущен Dec 28, 2025 с Vostochny Cosmodrome

Loading…

Ближайшие Пролёты (ближайшие 24 часа)

TLE

СвежийSource: Space-Track

Эпоха: Sep 13, 2026, 18:40 UTC

1 67275U 25313AD  26256.77791239  .00004253  00000-0  18012-3 0  9996
2 67275  97.3839 329.9190 0014763  61.6104 298.6620 15.23604423 39432

Отслеживайте VLADIVOSTOK-2 в реальном времени с AllMySat

Download on the App Store